Year,Month,Day,Hour,Minute,Value (Times are PST for temperature in C)
2008,11,04,00,00,6.60
2008,11,04,00,01,6.60
2008,11,04,00,02,6.60
2008,11,04,00,03,6.60
2008,11,04,00,04,6.60
2008,11,04,00,05,6.60
2008,11,04,00,06,6.60
2008,11,04,00,07,6.60
2008,11,04,00,08,6.60
2008,11,04,00,09,6.70
2008,11,04,00,10,6.70
2008,11,04,00,11,6.70
2008,11,04,00,12,6.70
2008,11,04,00,13,6.70
2008,11,04,00,14,6.70
2008,11,04,00,15,6.70
2008,11,04,00,16,6.70
2008,11,04,00,17,6.70
2008,11,04,00,18,6.70
2008,11,04,00,19,6.70
2008,11,04,00,20,6.70
2008,11,04,00,21,6.70
2008,11,04,00,22,6.70
2008,11,04,00,23,6.70
2008,11,04,00,24,6.70
2008,11,04,00,25,6.70
2008,11,04,00,26,6.70
2008,11,04,00,27,6.70
2008,11,04,00,28,6.70
2008,11,04,00,29,6.70
2008,11,04,00,30,6.70
2008,11,04,00,31,6.70
2008,11,04,00,32,6.70
2008,11,04,00,33,6.70
2008,11,04,00,34,6.70
2008,11,04,00,35,6.60
2008,11,04,00,36,6.60
2008,11,04,00,37,6.60
2008,11,04,00,38,6.60
2008,11,04,00,39,6.60
2008,11,04,00,40,6.60
2008,11,04,00,41,6.60
2008,11,04,00,42,6.60
2008,11,04,00,43,6.60
2008,11,04,00,44,6.60
2008,11,04,00,45,6.60
2008,11,04,00,46,6.60
2008,11,04,00,47,6.60
2008,11,04,00,48,6.60
2008,11,04,00,49,6.60
2008,11,04,00,50,6.60
2008,11,04,00,51,6.60
2008,11,04,00,52,6.60
2008,11,04,00,53,6.60
2008,11,04,00,54,6.60
2008,11,04,00,55,6.60
2008,11,04,00,56,6.60
2008,11,04,00,57,6.60
2008,11,04,00,58,6.60
2008,11,04,00,59,6.60
2008,11,04,01,00,6.60
2008,11,04,01,01,6.60
2008,11,04,01,02,6.60
2008,11,04,01,03,6.60
2008,11,04,01,04,6.60
2008,11,04,01,05,6.60
2008,11,04,01,06,6.60
2008,11,04,01,07,6.60
2008,11,04,01,08,6.60
2008,11,04,01,09,6.60
2008,11,04,01,10,6.60
2008,11,04,01,11,6.60
2008,11,04,01,12,6.60
2008,11,04,01,13,6.60
2008,11,04,01,14,6.60
2008,11,04,01,15,6.60
2008,11,04,01,16,6.60
2008,11,04,01,17,6.60
2008,11,04,01,18,6.60
2008,11,04,01,19,6.60
2008,11,04,01,20,6.60
2008,11,04,01,21,6.60
2008,11,04,01,22,6.60
2008,11,04,01,23,6.60
2008,11,04,01,24,6.60
2008,11,04,01,25,6.60
2008,11,04,01,26,6.60
2008,11,04,01,27,6.60
2008,11,04,01,28,6.60
2008,11,04,01,29,6.60
2008,11,04,01,30,6.60
2008,11,04,01,31,6.60
2008,11,04,01,32,6.60
2008,11,04,01,33,6.60
2008,11,04,01,34,6.60
2008,11,04,01,35,6.60
2008,11,04,01,36,6.60
2008,11,04,01,37,6.60
2008,11,04,01,38,6.60
2008,11,04,01,39,6.60
2008,11,04,01,40,6.60
2008,11,04,01,41,6.60
2008,11,04,01,42,6.60
2008,11,04,01,43,6.60
2008,11,04,01,44,6.60
2008,11,04,01,45,6.60
2008,11,04,01,46,6.60
2008,11,04,01,47,6.60
2008,11,04,01,48,6.60
2008,11,04,01,49,6.60
2008,11,04,01,50,6.60
2008,11,04,01,51,6.60
2008,11,04,01,52,6.70
2008,11,04,01,53,6.70
2008,11,04,01,54,6.70
2008,11,04,01,55,6.70
2008,11,04,01,56,6.70
2008,11,04,01,57,6.70
2008,11,04,01,58,6.70
2008,11,04,01,59,6.70
2008,11,04,02,00,6.70
2008,11,04,02,01,6.70
2008,11,04,02,02,6.70
2008,11,04,02,03,6.70
2008,11,04,02,04,6.70
2008,11,04,02,05,6.70
2008,11,04,02,06,6.70
2008,11,04,02,07,6.70
2008,11,04,02,08,6.70
2008,11,04,02,09,6.70
2008,11,04,02,10,6.70
2008,11,04,02,11,6.70
2008,11,04,02,12,6.70
2008,11,04,02,13,6.70
2008,11,04,02,14,6.70
2008,11,04,02,15,6.70
2008,11,04,02,16,6.70
2008,11,04,02,17,6.70
2008,11,04,02,18,6.70
2008,11,04,02,19,6.70
2008,11,04,02,20,6.70
2008,11,04,02,21,6.70
2008,11,04,02,22,6.70
2008,11,04,02,23,6.70
2008,11,04,02,24,6.80
2008,11,04,02,25,6.80
2008,11,04,02,26,6.80
2008,11,04,02,27,6.80
2008,11,04,02,28,6.80
2008,11,04,02,29,6.80
2008,11,04,02,30,6.80
2008,11,04,02,31,6.80
2008,11,04,02,32,6.80
2008,11,04,02,33,6.80
2008,11,04,02,34,6.80
2008,11,04,02,35,6.80
2008,11,04,02,36,6.80
2008,11,04,02,37,6.80
2008,11,04,02,38,6.70
2008,11,04,02,39,6.70
2008,11,04,02,40,6.80
2008,11,04,02,41,6.80
2008,11,04,02,42,6.80
2008,11,04,02,43,6.70
2008,11,04,02,44,6.70
2008,11,04,02,45,6.70
2008,11,04,02,46,6.70
2008,11,04,02,47,6.70
2008,11,04,02,48,6.70
2008,11,04,02,49,6.70
2008,11,04,02,50,6.70
2008,11,04,02,51,6.70
2008,11,04,02,52,6.70
2008,11,04,02,53,6.70
2008,11,04,02,54,6.70
2008,11,04,02,55,6.70
2008,11,04,02,56,6.70
2008,11,04,02,57,6.70
2008,11,04,02,58,6.70
2008,11,04,02,59,6.70
2008,11,04,03,00,6.70
2008,11,04,03,01,6.70
2008,11,04,03,02,6.70
2008,11,04,03,03,6.70
2008,11,04,03,04,6.70
2008,11,04,03,05,6.70
2008,11,04,03,06,6.70
2008,11,04,03,07,6.70
2008,11,04,03,08,6.70
2008,11,04,03,09,6.70
2008,11,04,03,10,6.70
2008,11,04,03,11,6.70
2008,11,04,03,12,6.70
2008,11,04,03,13,6.70
2008,11,04,03,14,6.70
2008,11,04,03,15,6.70
2008,11,04,03,16,6.70
2008,11,04,03,17,6.70
2008,11,04,03,18,6.70
2008,11,04,03,19,6.70
2008,11,04,03,20,6.70
2008,11,04,03,21,6.70
2008,11,04,03,22,6.70
2008,11,04,03,23,6.70
2008,11,04,03,24,6.70
2008,11,04,03,25,6.70
2008,11,04,03,26,6.70
2008,11,04,03,27,6.70
2008,11,04,03,28,6.70
2008,11,04,03,29,6.70
2008,11,04,03,30,6.70
2008,11,04,03,31,6.70
2008,11,04,03,32,6.70
2008,11,04,03,33,6.70
2008,11,04,03,34,6.70
2008,11,04,03,35,6.70
2008,11,04,03,36,6.70
2008,11,04,03,37,6.70
2008,11,04,03,38,6.70
2008,11,04,03,39,6.70
2008,11,04,03,40,6.70
2008,11,04,03,41,6.70
2008,11,04,03,42,6.70
2008,11,04,03,43,6.60
2008,11,04,03,44,6.60
2008,11,04,03,45,6.70
2008,11,04,03,46,6.70
2008,11,04,03,47,6.60
2008,11,04,03,48,6.70
2008,11,04,03,49,6.70
2008,11,04,03,50,6.70
2008,11,04,03,51,6.70
2008,11,04,03,52,6.70
2008,11,04,03,53,6.70
2008,11,04,03,54,6.70
2008,11,04,03,55,6.70
2008,11,04,03,56,6.70
2008,11,04,03,57,6.70
2008,11,04,03,58,6.70
2008,11,04,03,59,6.70
2008,11,04,04,00,6.70
2008,11,04,04,01,6.70
2008,11,04,04,02,6.70
2008,11,04,04,03,6.70
2008,11,04,04,04,6.70
2008,11,04,04,05,6.70
2008,11,04,04,06,6.70
2008,11,04,04,07,6.70
2008,11,04,04,08,6.70
2008,11,04,04,09,6.70
2008,11,04,04,10,6.70
2008,11,04,04,11,6.70
2008,11,04,04,12,6.60
2008,11,04,04,13,6.60
2008,11,04,04,14,6.60
2008,11,04,04,15,6.60
2008,11,04,04,16,6.60
2008,11,04,04,17,6.60
2008,11,04,04,18,6.60
2008,11,04,04,19,6.60
2008,11,04,04,20,6.60
2008,11,04,04,21,6.60
2008,11,04,04,22,6.60
2008,11,04,04,23,6.60
2008,11,04,04,24,6.60
2008,11,04,04,25,6.60
2008,11,04,04,26,6.60
2008,11,04,04,27,6.60
2008,11,04,04,28,6.60
2008,11,04,04,29,6.60
2008,11,04,04,30,6.60
2008,11,04,04,31,6.60
2008,11,04,04,32,6.60
2008,11,04,04,33,6.60
2008,11,04,04,34,6.60
2008,11,04,04,35,6.60
2008,11,04,04,36,6.60
2008,11,04,04,37,6.60
2008,11,04,04,38,6.60
2008,11,04,04,39,6.60
2008,11,04,04,40,6.60
2008,11,04,04,41,6.60
2008,11,04,04,42,6.60
2008,11,04,04,43,6.70
2008,11,04,04,44,6.70
2008,11,04,04,45,6.70
2008,11,04,04,46,6.70
2008,11,04,04,47,6.70
2008,11,04,04,48,6.70
2008,11,04,04,49,6.70
2008,11,04,04,50,6.70
2008,11,04,04,51,6.70
2008,11,04,04,52,6.70
2008,11,04,04,53,6.70
2008,11,04,04,54,6.70
2008,11,04,04,55,6.70
2008,11,04,04,56,6.70
2008,11,04,04,57,6.60
2008,11,04,04,58,6.60
2008,11,04,04,59,6.60
2008,11,04,05,00,6.60
2008,11,04,05,01,6.60
2008,11,04,05,02,6.60
2008,11,04,05,03,6.60
2008,11,04,05,04,6.60
2008,11,04,05,05,6.60
2008,11,04,05,06,6.60
2008,11,04,05,07,6.60
2008,11,04,05,08,6.60
2008,11,04,05,09,6.60
2008,11,04,05,10,6.60
2008,11,04,05,11,6.60
2008,11,04,05,12,6.60
2008,11,04,05,13,6.60
2008,11,04,05,14,6.50
2008,11,04,05,15,6.50
2008,11,04,05,16,6.50
2008,11,04,05,17,6.50
2008,11,04,05,18,6.50
2008,11,04,05,19,6.50
2008,11,04,05,20,6.50
2008,11,04,05,21,6.50
2008,11,04,05,22,6.50
2008,11,04,05,23,6.50
2008,11,04,05,24,6.50
2008,11,04,05,25,6.50
2008,11,04,05,26,6.50
2008,11,04,05,27,6.50
2008,11,04,05,28,6.50
2008,11,04,05,29,6.50
2008,11,04,05,30,6.50
2008,11,04,05,31,6.50
2008,11,04,05,32,6.50
2008,11,04,05,33,6.50
2008,11,04,05,34,6.50
2008,11,04,05,35,6.50
2008,11,04,05,36,6.40
2008,11,04,05,37,6.40
2008,11,04,05,38,6.40
2008,11,04,05,39,6.40
2008,11,04,05,40,6.40
2008,11,04,05,41,6.40
2008,11,04,05,42,6.40
2008,11,04,05,43,6.40
2008,11,04,05,44,6.40
2008,11,04,05,45,6.40
2008,11,04,05,46,6.50
2008,11,04,05,47,6.50
2008,11,04,05,48,6.50
2008,11,04,05,49,6.50
2008,11,04,05,50,6.50
2008,11,04,05,51,6.50
2008,11,04,05,52,6.50
2008,11,04,05,53,6.50
2008,11,04,05,54,6.50
2008,11,04,05,55,6.50
2008,11,04,05,56,6.50
2008,11,04,05,57,6.50
2008,11,04,05,58,6.50
2008,11,04,05,59,6.40
2008,11,04,06,00,6.40
2008,11,04,06,01,6.40
2008,11,04,06,02,6.40
2008,11,04,06,03,6.40
2008,11,04,06,04,6.40
2008,11,04,06,05,6.40
2008,11,04,06,06,6.40
2008,11,04,06,07,6.40
2008,11,04,06,08,6.40
2008,11,04,06,09,6.40
2008,11,04,06,10,6.40
2008,11,04,06,11,6.40
2008,11,04,06,12,6.40
2008,11,04,06,13,6.40
2008,11,04,06,14,6.40
2008,11,04,06,15,6.30
2008,11,04,06,16,6.30
2008,11,04,06,17,6.30
2008,11,04,06,18,6.30
2008,11,04,06,19,6.30
2008,11,04,06,20,6.30
2008,11,04,06,21,6.30
2008,11,04,06,22,6.30
2008,11,04,06,23,6.30
2008,11,04,06,24,6.30
2008,11,04,06,25,6.30
2008,11,04,06,26,6.30
2008,11,04,06,27,6.30
2008,11,04,06,28,6.30
2008,11,04,06,29,6.30
2008,11,04,06,30,6.30
2008,11,04,06,31,6.30
2008,11,04,06,32,6.30
2008,11,04,06,33,6.30
2008,11,04,06,34,6.30
2008,11,04,06,35,6.30
2008,11,04,06,36,6.30
2008,11,04,06,37,6.30
2008,11,04,06,38,6.20
2008,11,04,06,39,6.20
2008,11,04,06,40,6.20
2008,11,04,06,41,6.20
2008,11,04,06,42,6.20
2008,11,04,06,43,6.20
2008,11,04,06,44,6.20
2008,11,04,06,45,6.20
2008,11,04,06,46,6.20
2008,11,04,06,47,6.20
2008,11,04,06,48,6.20
2008,11,04,06,49,6.10
2008,11,04,06,50,6.10
2008,11,04,06,51,6.10
2008,11,04,06,52,6.10
2008,11,04,06,53,6.10
2008,11,04,06,54,6.10
2008,11,04,06,55,6.10
2008,11,04,06,56,6.10
2008,11,04,06,57,6.10
2008,11,04,06,58,6.10
2008,11,04,06,59,6.10
2008,11,04,07,00,6.10
2008,11,04,07,01,6.10
2008,11,04,07,02,6.10
2008,11,04,07,03,6.20
2008,11,04,07,04,6.20
2008,11,04,07,05,6.20
2008,11,04,07,06,6.20
2008,11,04,07,07,6.20
2008,11,04,07,08,6.20
2008,11,04,07,09,6.20
2008,11,04,07,10,6.20
2008,11,04,07,11,6.20
2008,11,04,07,12,6.20
2008,11,04,07,13,6.20
2008,11,04,07,14,6.20
2008,11,04,07,15,6.20
2008,11,04,07,16,6.20
2008,11,04,07,17,6.20
2008,11,04,07,18,6.20
2008,11,04,07,19,6.20
2008,11,04,07,20,6.20
2008,11,04,07,21,6.20
2008,11,04,07,22,6.20
2008,11,04,07,23,6.20
2008,11,04,07,24,6.20
2008,11,04,07,25,6.20
2008,11,04,07,26,6.20
2008,11,04,07,27,6.20
2008,11,04,07,28,6.20
2008,11,04,07,29,6.20
2008,11,04,07,30,6.20
2008,11,04,07,31,6.20
2008,11,04,07,32,6.20
2008,11,04,07,33,6.20
2008,11,04,07,34,6.20
2008,11,04,07,35,6.20
2008,11,04,07,36,6.20
2008,11,04,07,37,6.20
2008,11,04,07,38,6.20
2008,11,04,07,39,6.20
2008,11,04,07,40,6.20
2008,11,04,07,41,6.20
2008,11,04,07,42,6.30
2008,11,04,07,43,6.30
2008,11,04,07,44,6.30
2008,11,04,07,45,6.30
2008,11,04,07,46,6.40
2008,11,04,07,47,6.40
2008,11,04,07,48,6.40
2008,11,04,07,49,6.40
2008,11,04,07,50,6.40
2008,11,04,07,51,6.50
2008,11,04,07,52,6.50
2008,11,04,07,53,6.50
2008,11,04,07,54,6.50
2008,11,04,07,55,6.50
2008,11,04,07,56,6.50
2008,11,04,07,57,6.50
2008,11,04,07,58,6.50
2008,11,04,07,59,6.50
2008,11,04,08,00,6.50
2008,11,04,08,01,6.50
2008,11,04,08,02,6.50
2008,11,04,08,03,6.50
2008,11,04,08,04,6.60
2008,11,04,08,05,6.60
2008,11,04,08,06,6.60
2008,11,04,08,07,6.60
2008,11,04,08,08,6.60
2008,11,04,08,09,6.60
2008,11,04,08,10,6.60
2008,11,04,08,11,6.60
2008,11,04,08,12,6.60
2008,11,04,08,13,6.60
2008,11,04,08,14,6.60
2008,11,04,08,15,6.60
2008,11,04,08,16,6.60
2008,11,04,08,17,6.60
2008,11,04,08,18,6.70
2008,11,04,08,19,6.70
2008,11,04,08,20,6.70
2008,11,04,08,21,6.70
2008,11,04,08,22,6.70
2008,11,04,08,23,6.70
2008,11,04,08,24,6.70
2008,11,04,08,25,6.70
2008,11,04,08,26,6.70
2008,11,04,08,27,6.70
2008,11,04,08,28,6.70
2008,11,04,08,29,6.70
2008,11,04,08,30,6.70
2008,11,04,08,31,6.70
2008,11,04,08,32,6.80
2008,11,04,08,33,6.80
2008,11,04,08,34,6.80
2008,11,04,08,35,6.80
2008,11,04,08,36,6.80
2008,11,04,08,37,6.80
2008,11,04,08,38,6.80
2008,11,04,08,39,6.80
2008,11,04,08,40,6.80
2008,11,04,08,41,6.80
2008,11,04,08,42,6.90
2008,11,04,08,43,6.90
2008,11,04,08,44,6.90
2008,11,04,08,45,6.90
2008,11,04,08,46,6.90
2008,11,04,08,47,6.90
2008,11,04,08,48,6.90
2008,11,04,08,49,6.90
2008,11,04,08,50,7.00
2008,11,04,08,51,7.00
2008,11,04,08,52,7.00
2008,11,04,08,53,7.00
2008,11,04,08,54,7.10
2008,11,04,08,55,7.10
2008,11,04,08,56,7.10
2008,11,04,08,57,7.10
2008,11,04,08,58,7.10
2008,11,04,08,59,7.20
2008,11,04,09,00,7.20
2008,11,04,09,01,7.20
2008,11,04,09,02,7.20
2008,11,04,09,03,7.20
2008,11,04,09,04,7.20
2008,11,04,09,05,7.30
2008,11,04,09,06,7.30
2008,11,04,09,07,7.30
2008,11,04,09,08,7.30
2008,11,04,09,09,7.30
2008,11,04,09,10,7.40
2008,11,04,09,11,7.40
2008,11,04,09,12,7.40
2008,11,04,09,13,7.40
2008,11,04,09,14,7.40
2008,11,04,09,15,7.50
2008,11,04,09,16,7.50
2008,11,04,09,17,7.50
2008,11,04,09,18,7.60
2008,11,04,09,19,7.60
2008,11,04,09,20,7.60
2008,11,04,09,21,7.60
2008,11,04,09,22,7.60
2008,11,04,09,23,7.60
2008,11,04,09,24,7.60
2008,11,04,09,25,7.60
2008,11,04,09,26,7.60
2008,11,04,09,27,7.70
2008,11,04,09,28,7.70
2008,11,04,09,29,7.70
2008,11,04,09,30,7.70
2008,11,04,09,31,7.70
2008,11,04,09,32,7.70
2008,11,04,09,33,7.70
2008,11,04,09,34,7.70
2008,11,04,09,35,7.70
2008,11,04,09,36,7.70
2008,11,04,09,37,7.70
2008,11,04,09,38,7.70
2008,11,04,09,39,7.70
2008,11,04,09,40,7.70
2008,11,04,09,41,7.70
2008,11,04,09,42,7.70
2008,11,04,09,43,7.60
2008,11,04,09,44,7.60
2008,11,04,09,45,7.60
2008,11,04,09,46,7.70
2008,11,04,09,47,7.70
2008,11,04,09,48,7.70
2008,11,04,09,49,7.70
2008,11,04,09,50,7.70
2008,11,04,09,51,7.70
2008,11,04,09,52,7.70
2008,11,04,09,53,7.70
2008,11,04,09,54,7.70
2008,11,04,09,55,7.70
2008,11,04,09,56,7.60
2008,11,04,09,57,7.60
2008,11,04,09,58,7.70
2008,11,04,09,59,7.70
2008,11,04,10,00,7.70
2008,11,04,10,01,7.70
2008,11,04,10,02,7.70
2008,11,04,10,03,7.70
2008,11,04,10,04,7.70
2008,11,04,10,05,7.70
2008,11,04,10,06,7.80
2008,11,04,10,07,7.80
2008,11,04,10,08,7.90
2008,11,04,10,09,7.90
2008,11,04,10,10,8.00
2008,11,04,10,11,8.10
2008,11,04,10,12,8.10
2008,11,04,10,13,8.10
2008,11,04,10,14,8.20
2008,11,04,10,15,8.20
2008,11,04,10,16,8.20
2008,11,04,10,17,8.20
2008,11,04,10,18,8.30
2008,11,04,10,19,8.30
2008,11,04,10,20,8.30
2008,11,04,10,21,8.40
2008,11,04,10,22,8.40
2008,11,04,10,23,8.30
2008,11,04,10,24,8.30
2008,11,04,10,25,8.30
2008,11,04,10,26,8.30
2008,11,04,10,27,8.40
2008,11,04,10,28,8.40
2008,11,04,10,29,8.40
2008,11,04,10,30,8.40
2008,11,04,10,31,8.50
2008,11,04,10,32,8.50
2008,11,04,10,33,8.50
2008,11,04,10,34,8.50
2008,11,04,10,35,8.50
2008,11,04,10,36,8.50
2008,11,04,10,37,8.40
2008,11,04,10,38,8.40
2008,11,04,10,39,8.50
2008,11,04,10,40,8.50
2008,11,04,10,41,8.50
2008,11,04,10,42,8.50
2008,11,04,10,43,8.50
2008,11,04,10,44,8.50
2008,11,04,10,45,8.50
2008,11,04,10,46,8.60
2008,11,04,10,47,8.50
2008,11,04,10,48,8.50
2008,11,04,10,49,8.50
2008,11,04,10,50,8.50
2008,11,04,10,51,8.50
2008,11,04,10,52,8.50
2008,11,04,10,53,8.60
2008,11,04,10,54,8.60
2008,11,04,10,55,8.60
2008,11,04,10,56,8.60
2008,11,04,10,57,8.60
2008,11,04,10,58,8.60
2008,11,04,10,59,8.60
2008,11,04,11,00,8.60
2008,11,04,11,01,8.60
2008,11,04,11,02,8.60
2008,11,04,11,03,8.60
2008,11,04,11,04,8.60
2008,11,04,11,05,8.60
2008,11,04,11,06,8.60
2008,11,04,11,07,8.60
2008,11,04,11,08,8.60
2008,11,04,11,09,8.60
2008,11,04,11,10,8.50
2008,11,04,11,11,8.50
2008,11,04,11,12,8.50
2008,11,04,11,13,8.50
2008,11,04,11,14,8.40
2008,11,04,11,15,8.40
2008,11,04,11,16,8.40
2008,11,04,11,17,8.40
2008,11,04,11,18,8.40
2008,11,04,11,19,8.50
2008,11,04,11,20,8.60
2008,11,04,11,21,8.60
2008,11,04,11,22,8.60
2008,11,04,11,23,8.70
2008,11,04,11,24,8.70
2008,11,04,11,25,8.70
2008,11,04,11,26,8.70
2008,11,04,11,27,8.70
2008,11,04,11,28,8.80
2008,11,04,11,29,8.80
2008,11,04,11,30,8.80
2008,11,04,11,31,8.90
2008,11,04,11,32,8.90
2008,11,04,11,33,8.90
2008,11,04,11,34,8.90
2008,11,04,11,35,8.90
2008,11,04,11,36,8.80
2008,11,04,11,37,8.80
2008,11,04,11,38,8.80
2008,11,04,11,39,8.80
2008,11,04,11,40,8.80
2008,11,04,11,41,8.80
2008,11,04,14,29,9.00
2008,11,04,14,30,9.00
2008,11,04,14,31,9.00
2008,11,04,14,32,9.00
2008,11,04,14,33,9.00
2008,11,04,14,34,9.00
2008,11,04,14,35,9.00
2008,11,04,14,36,8.90
2008,11,04,14,37,8.90
2008,11,04,14,38,8.90
2008,11,04,14,39,8.90
2008,11,04,14,40,8.90
2008,11,04,14,41,8.80
2008,11,04,14,42,8.80
2008,11,04,14,43,8.80
2008,11,04,14,44,8.80
2008,11,04,14,45,8.80
2008,11,04,14,46,8.80
2008,11,04,14,47,8.70
2008,11,04,14,48,8.70
2008,11,04,14,49,8.70
2008,11,04,14,50,8.70
2008,11,04,14,51,8.70
2008,11,04,14,52,8.70
2008,11,04,14,53,8.70
2008,11,04,14,54,8.70
2008,11,04,14,55,8.70
2008,11,04,14,56,8.70
2008,11,04,14,57,8.70
2008,11,04,14,58,8.70
2008,11,04,14,59,8.70
2008,11,04,15,00,8.70
2008,11,04,15,01,8.70
2008,11,04,15,02,8.70
2008,11,04,15,03,8.70
2008,11,04,15,04,8.70
2008,11,04,15,05,8.70
2008,11,04,15,06,8.70
2008,11,04,15,07,8.70
2008,11,04,15,08,8.70
2008,11,04,15,09,8.80
2008,11,04,15,10,8.80
2008,11,04,15,11,8.80
2008,11,04,15,12,8.90
2008,11,04,15,13,8.90
2008,11,04,15,14,9.00
2008,11,04,15,15,9.00
2008,11,04,15,16,9.10
2008,11,04,15,17,9.10
2008,11,04,15,18,9.20
2008,11,04,15,19,9.20
2008,11,04,15,20,9.20
2008,11,04,15,21,9.30
2008,11,04,15,22,9.30
2008,11,04,15,23,9.30
2008,11,04,15,24,9.30
2008,11,04,15,25,9.30
2008,11,04,15,26,9.30
2008,11,04,15,27,9.30
2008,11,04,15,28,9.20
2008,11,04,15,29,9.20
2008,11,04,15,30,9.20
2008,11,04,15,31,9.10
2008,11,04,15,32,9.10
2008,11,04,15,33,9.10
2008,11,04,15,34,9.00
2008,11,04,15,35,9.00
2008,11,04,15,36,9.00
2008,11,04,15,37,9.00
2008,11,04,15,38,9.00
2008,11,04,15,39,9.00
2008,11,04,15,40,9.00
2008,11,04,15,41,9.10
2008,11,04,15,42,9.10
2008,11,04,15,43,9.10
2008,11,04,15,44,9.00
2008,11,04,15,45,9.00
2008,11,04,15,46,9.00
2008,11,04,15,47,9.00
2008,11,04,15,48,8.90
2008,11,04,15,49,8.90
2008,11,04,15,50,8.90
2008,11,04,15,51,8.90
2008,11,04,15,52,8.80
2008,11,04,15,53,8.80
2008,11,04,15,54,8.80
2008,11,04,15,55,8.80
2008,11,04,15,56,8.80
2008,11,04,15,57,8.70
2008,11,04,15,58,8.70
2008,11,04,15,59,8.70
2008,11,04,16,00,8.70
2008,11,04,16,01,8.70
2008,11,04,16,02,8.70
2008,11,04,16,03,8.60
2008,11,04,16,04,8.60
2008,11,04,16,05,8.60
2008,11,04,16,06,8.50
2008,11,04,16,07,8.50
2008,11,04,16,08,8.50
2008,11,04,16,09,8.50
2008,11,04,16,10,8.40
2008,11,04,16,11,8.40
2008,11,04,16,12,8.40
2008,11,04,16,13,8.40
2008,11,04,16,14,8.40
2008,11,04,16,15,8.40
2008,11,04,16,16,8.40
2008,11,04,16,17,8.30
2008,11,04,16,18,8.30
2008,11,04,16,19,8.30
2008,11,04,16,20,8.30
2008,11,04,16,21,8.30
2008,11,04,16,22,8.20
2008,11,04,16,23,8.20
2008,11,04,16,24,8.20
2008,11,04,16,25,8.20
2008,11,04,16,26,8.20
2008,11,04,16,27,8.10
2008,11,04,16,28,8.10
2008,11,04,16,29,8.10
2008,11,04,16,30,8.00
2008,11,04,16,31,8.00
2008,11,04,16,32,7.90
2008,11,04,16,33,7.90
2008,11,04,16,34,7.90
2008,11,04,16,35,7.80
2008,11,04,16,36,7.80
2008,11,04,16,37,7.70
2008,11,04,16,38,7.70
2008,11,04,16,39,7.70
2008,11,04,16,40,7.60
2008,11,04,16,41,7.60
2008,11,04,16,42,7.50
2008,11,04,16,43,7.50
2008,11,04,16,44,7.40
2008,11,04,16,45,7.30
2008,11,04,16,46,7.20
2008,11,04,16,47,7.20
2008,11,04,16,48,7.10
2008,11,04,16,49,7.00
2008,11,04,16,50,6.90
2008,11,04,16,51,6.80
2008,11,04,16,52,6.80
2008,11,04,16,53,6.70
2008,11,04,16,54,6.70
2008,11,04,16,55,6.60
2008,11,04,16,56,6.60
2008,11,04,16,57,6.50
2008,11,04,16,58,6.50
2008,11,04,16,59,6.40
2008,11,04,17,00,6.40
2008,11,04,17,01,6.40
2008,11,04,17,02,6.30
2008,11,04,17,03,6.30
2008,11,04,17,04,6.20
2008,11,04,17,05,6.20
2008,11,04,17,06,6.20
2008,11,04,17,07,6.20
2008,11,04,17,08,6.10
2008,11,04,17,09,6.10
2008,11,04,17,10,6.10
2008,11,04,17,11,6.10
2008,11,04,17,12,6.00
2008,11,04,17,13,6.00
2008,11,04,17,14,5.90
2008,11,04,17,15,5.90
2008,11,04,17,16,5.90
2008,11,04,17,17,5.90
2008,11,04,17,18,5.90
2008,11,04,17,19,5.90
2008,11,04,17,20,5.90
2008,11,04,17,21,5.90
2008,11,04,17,22,5.80
2008,11,04,17,23,5.80
2008,11,04,17,24,5.80
2008,11,04,17,25,5.80
2008,11,04,17,26,5.80
2008,11,04,17,27,5.80
2008,11,04,17,28,5.80
2008,11,04,17,29,5.80
2008,11,04,17,30,5.70
2008,11,04,17,31,5.70
2008,11,04,17,32,5.70
2008,11,04,17,33,5.70
2008,11,04,17,34,5.70
2008,11,04,17,35,5.70
2008,11,04,17,36,5.70
2008,11,04,17,37,5.60
2008,11,04,17,38,5.60
2008,11,04,17,39,5.60
2008,11,04,17,40,5.60
2008,11,04,17,41,5.60
2008,11,04,17,42,5.60
2008,11,04,17,43,5.50
2008,11,04,17,44,5.50
2008,11,04,17,45,5.50
2008,11,04,17,46,5.50
2008,11,04,17,47,5.50
2008,11,04,17,48,5.40
2008,11,04,17,49,5.40
2008,11,04,17,50,5.40
2008,11,04,17,51,5.40
2008,11,04,17,52,5.40
2008,11,04,17,53,5.40
2008,11,04,17,54,5.40
2008,11,04,17,55,5.30
2008,11,04,17,56,5.30
2008,11,04,17,57,5.30
2008,11,04,17,58,5.30
2008,11,04,17,59,5.30
2008,11,04,18,00,5.30
2008,11,04,18,01,5.30
2008,11,04,18,02,5.30
2008,11,04,18,03,5.30
2008,11,04,18,04,5.30
2008,11,04,18,05,5.20
2008,11,04,18,06,5.20
2008,11,04,18,07,5.20
2008,11,04,18,08,5.20
2008,11,04,18,09,5.20
2008,11,04,18,10,5.20
2008,11,04,18,11,5.20
2008,11,04,18,12,5.20
2008,11,04,18,13,5.20
2008,11,04,18,14,5.10
2008,11,04,18,15,5.10
2008,11,04,18,16,5.10
2008,11,04,18,17,5.10
2008,11,04,18,18,5.10
2008,11,04,18,19,5.10
2008,11,04,18,20,5.10
2008,11,04,18,21,5.10
2008,11,04,18,22,5.10
2008,11,04,18,23,5.10
2008,11,04,18,24,5.10
2008,11,04,18,25,5.10
2008,11,04,18,26,5.10
2008,11,04,18,27,5.10
2008,11,04,18,28,5.10
2008,11,04,18,29,5.10
2008,11,04,18,30,5.00
2008,11,04,18,31,5.00
2008,11,04,18,32,5.00
2008,11,04,18,33,5.00
2008,11,04,18,34,4.90
2008,11,04,18,35,4.90
2008,11,04,18,36,4.90
2008,11,04,18,37,4.90
2008,11,04,18,38,4.90
2008,11,04,18,39,4.90
2008,11,04,18,40,4.90
2008,11,04,18,41,4.90
2008,11,04,18,42,4.90
2008,11,04,18,43,4.90
2008,11,04,18,44,4.90
2008,11,04,18,45,4.90
2008,11,04,18,46,4.90
2008,11,04,18,47,4.90
2008,11,04,18,48,4.80
2008,11,04,18,49,4.80
2008,11,04,18,50,4.80
2008,11,04,18,51,4.80
2008,11,04,18,52,4.80
2008,11,04,18,53,4.80
2008,11,04,18,54,4.80
2008,11,04,18,55,4.70
2008,11,04,18,56,4.70
2008,11,04,18,57,4.70
2008,11,04,18,58,4.70
2008,11,04,18,59,4.70
2008,11,04,19,00,4.70
2008,11,04,19,01,4.70
2008,11,04,19,02,4.60
2008,11,04,19,03,4.60
2008,11,04,19,04,4.60
2008,11,04,19,05,4.60
2008,11,04,19,06,4.60
2008,11,04,19,07,4.50
2008,11,04,19,08,4.50
2008,11,04,19,09,4.50
2008,11,04,19,10,4.50
2008,11,04,19,11,4.50
2008,11,04,19,12,4.50
2008,11,04,19,13,4.40
2008,11,04,19,14,4.40
2008,11,04,19,15,4.40
2008,11,04,19,16,4.40
2008,11,04,19,17,4.40
2008,11,04,19,18,4.40
2008,11,04,19,19,4.40
2008,11,04,19,20,4.40
2008,11,04,19,21,4.40
2008,11,04,19,22,4.40
2008,11,04,19,23,4.40
2008,11,04,19,24,4.40
2008,11,04,19,25,4.40
2008,11,04,19,26,4.40
2008,11,04,19,27,4.40
2008,11,04,19,28,4.30
2008,11,04,19,29,4.30
2008,11,04,19,30,4.30
2008,11,04,19,31,4.30
2008,11,04,19,32,4.20
2008,11,04,19,33,4.20
2008,11,04,19,34,4.10
2008,11,04,19,35,4.10
2008,11,04,19,36,4.00
2008,11,04,19,37,4.00
2008,11,04,19,38,3.90
2008,11,04,19,39,3.80
2008,11,04,19,40,3.80
2008,11,04,19,41,3.80
2008,11,04,19,42,3.80
2008,11,04,19,43,3.80
2008,11,04,19,44,3.80
2008,11,04,19,45,3.80
2008,11,04,19,46,3.80
2008,11,04,19,47,3.80
2008,11,04,19,48,3.70
2008,11,04,19,49,3.70
2008,11,04,19,50,3.70
2008,11,04,19,51,3.70
2008,11,04,19,52,3.70
2008,11,04,19,53,3.70
2008,11,04,19,54,3.70
2008,11,04,19,55,3.60
2008,11,04,19,56,3.60
2008,11,04,19,57,3.60
2008,11,04,19,58,3.60
2008,11,04,19,59,3.50
2008,11,04,20,00,3.50
2008,11,04,20,01,3.50
2008,11,04,20,02,3.50
2008,11,04,20,03,3.40
2008,11,04,20,04,3.40
2008,11,04,20,05,3.40
2008,11,04,20,06,3.50
2008,11,04,20,07,3.50
2008,11,04,20,08,3.50
2008,11,04,20,09,3.50
2008,11,04,20,10,3.50
2008,11,04,20,11,3.50
2008,11,04,20,12,3.50
2008,11,04,20,13,3.50
2008,11,04,20,14,3.60
2008,11,04,20,15,3.60
2008,11,04,20,16,3.60
2008,11,04,20,17,3.60
2008,11,04,20,18,3.60
2008,11,04,20,19,3.60
2008,11,04,20,20,3.60
2008,11,04,20,21,3.60
2008,11,04,20,22,3.60
2008,11,04,20,23,3.60
2008,11,04,20,24,3.60
2008,11,04,20,25,3.60
2008,11,04,20,26,3.60
2008,11,04,20,27,3.50
2008,11,04,20,28,3.50
2008,11,04,20,29,3.50
2008,11,04,20,30,3.50
2008,11,04,20,31,3.50
2008,11,04,20,32,3.40
2008,11,04,20,33,3.40
2008,11,04,20,34,3.40
2008,11,04,20,35,3.40
2008,11,04,20,36,3.40
2008,11,04,20,37,3.40
2008,11,04,20,38,3.40
2008,11,04,20,39,3.40
2008,11,04,20,40,3.40
2008,11,04,20,41,3.30
2008,11,04,20,42,3.30
2008,11,04,20,43,3.30
2008,11,04,20,44,3.30
2008,11,04,20,45,3.30
2008,11,04,20,46,3.30
2008,11,04,20,47,3.30
2008,11,04,20,48,3.30
2008,11,04,20,49,3.30
2008,11,04,20,50,3.30
2008,11,04,20,51,3.30
2008,11,04,20,52,3.20
2008,11,04,20,53,3.20